Flag for Italy Weather past 2 weeks in Cagliari, Italy

Now
72 °F

Sunny.


Feels Like: 74 °F
Forecast: 61 / 95 °F
Wind: 13 mph from South

Location: Cagliari / Elmas

Current Time: May 4, 2015 at 2:06:32 PM

Latest Report: May 4, 2015 at 1:20 PM


Visibility: 10 mi

Pressure: 29.92 "Hg

Humidity: 73%

Dew point: 63 °F

Location of CagliariLocation

Historic Weather in Cagliari — Graph

°F

Cagliari temperature yesterday

Maximum temperature yesterday: 79 °F (at 1:50 PM)
Minimum temperature yesterday: 57 °F (at 5:50 AM)
Average temperature yesterday: 69 °F

Past Weeks' High & Low Weather Summary

 TemperatureHumidityPressure
High84 °F (May 2, 4:50 PM)100% (Apr 20, 1:50 AM)30.27 "Hg (Apr 20, 1:50 AM)
Low46 °F (Apr 22, 4:50 AM)34% (May 3, 3:50 PM)29.71 "Hg (Apr 27, 2:50 PM)
Average63 °F74%30.02 "Hg
* Reported Apr 19 12:20 PM — May 4 12:50 PM, Cagliari, Weather by CustomWeather, © 2015

Note: Actual official high and low records may vary slightly from our data, if they occured in-between our weather recording intervals... More about our weather records

Advertising

Cagliari weather history for previous 24 hours

 ConditionsComfort  
Time TempWeatherWind HumidityBarometerVisibility
12:50 PM
Mon, May 4
72 °FSunny.14 mph73%29.92 "Hg10 mi
12:20 PM72 °FSunny.17 mph73%29.92 "Hg10 mi
11:50 AM75 °FSunny.12 mph57%29.92 "Hg10 mi
11:20 AM73 °FPassing clouds.8 mph65%29.92 "HgN/A
10:50 AM73 °FPassing clouds.3 mph69%29.92 "HgN/A
10:20 AM72 °FPassing clouds.3 mph69%29.92 "HgN/A
9:50 AM70 °FSunny.3 mph73%29.92 "Hg10 mi
9:20 AM68 °FSunny.1 mph78%29.92 "Hg10 mi
8:50 AM64 °FPassing clouds.2 mph83%29.92 "HgN/A
8:20 AM63 °FPassing clouds.3 mph83%29.92 "HgN/A
7:50 AM61 °FSunny.2 mph83%29.92 "Hg10 mi
7:20 AM57 °FClear.1 mph88%29.92 "Hg10 mi
6:50 AM57 °FClear.2 mph82%29.92 "Hg10 mi
6:20 AM57 °FClear.5 mph88%29.92 "Hg10 mi
5:20 AM57 °FClear.5 mph94%29.92 "Hg10 mi
4:50 AM57 °FClear.5 mph94%29.92 "Hg10 mi
4:20 AM59 °FClear.5 mph94%29.92 "Hg10 mi
3:50 AM59 °FClear.7 mph94%29.92 "Hg10 mi
3:20 AM64 °FClear.2 mph78%29.92 "Hg10 mi
2:50 AM64 °FClear.5 mph83%29.92 "Hg10 mi
2:20 AM64 °FClear.5 mph83%29.95 "Hg10 mi
1:50 AM64 °FClear.6 mph83%29.95 "Hg10 mi
1:20 AM64 °FClear.5 mph83%29.95 "Hg10 mi
12:50 AM66 °FClear.7 mph78%29.95 "Hg10 mi
12:20 AM66 °FClear.7 mph78%29.95 "Hg10 mi
11:50 PM
Sun, May 3
66 °FClear.8 mph83%29.95 "Hg10 mi
11:20 PM66 °FClear.8 mph83%29.95 "Hg10 mi
10:50 PM66 °FClear.8 mph83%29.95 "Hg10 mi
10:20 PM66 °FClear.8 mph78%29.95 "Hg10 mi
9:50 PM68 °FClear.8 mph73%29.95 "Hg10 mi
9:20 PM68 °FClear.9 mph69%29.92 "Hg10 mi
8:50 PM70 °FSunny.9 mph64%29.92 "Hg10 mi
8:20 PM70 °FSunny.10 mph64%29.92 "Hg10 mi
7:50 PM70 °FSunny.10 mph64%29.92 "Hg10 mi
7:20 PM72 °FSunny.12 mph57%29.92 "Hg10 mi
6:50 PM72 °FSunny.10 mph61%29.92 "Hg10 mi
6:20 PM75 °FSunny.9 mph47%29.89 "Hg10 mi
5:50 PM77 °FSunny.10 mph39%29.89 "Hg10 mi
5:20 PM79 °FSunny.9 mph39%29.89 "Hg10 mi
4:50 PM79 °FSunny.10 mph37%29.92 "Hg10 mi
4:20 PM77 °FSunny.14 mph36%29.92 "Hg10 mi
3:50 PM79 °FSunny.14 mph34%29.92 "Hg10 mi
3:20 PM75 °FSunny.13 mph41%29.92 "Hg10 mi
2:50 PM77 °FSunny.13 mph51%29.92 "Hg10 mi
2:20 PM79 °FPassing clouds.12 mph45%29.92 "HgN/A
Weather by CustomWeather, © 2015

See weather overviewHow to use our weather pages